W5ZYX Weather Reports


Display with metric or nautical units.
time (UTC)temp
F
wind
direction
speed
MPH
gust
MPH
rain 1hr
in
rain 24hr
in
rain mn
in
humidity
%
barometer
mb
20240526052037 78 136 4.0 12.0 0.00 0.00 0.00 88 1008.6
20240526051537 78 141 5.0 12.0 0.00 0.00 0.00 87 1008.6
20240526051037 78 165 4.0 11.0 0.00 0.00 0.00 87 1008.3
20240526050536 78 121 6.0 11.0 0.00 0.00 0.00 87 1008.2
20240526050041 79 180 6.0 11.0 0.00 0.00 0.00 87 1008.2
20240526045537 79 166 6.0 14.0 0.00 0.00 0.00 86 1008.1
20240526045038 79 119 4.0 14.0 0.00 0.00 0.00 86 1008.3
20240526044539 79 138 6.0 12.0 0.00 0.00 0.00 86 1008.2
20240526044036 79 134 6.0 12.0 0.00 0.00 0.00 85 1008.2
20240526043536 79 136 6.0 11.0 0.00 0.00 0.00 85 1008.2
20240526043043 79 161 6.0 16.0 0.00 0.00 0.00 85 1008.4
20240526042538 79 156 7.0 16.0 0.00 0.00 0.00 85 1008.4
20240526042037 79 144 5.0 14.0 0.00 0.00 0.00 84 1008.4
20240526041538 79 142 6.0 15.0 0.00 0.00 0.00 84 1008.4
20240526041037 80 189 6.0 15.0 0.00 0.00 0.00 84 1008.3
20240526040538 80 184 7.0 15.0 0.00 0.00 0.00 84 1008.0
20240526040043 80 184 6.0 15.0 0.00 0.00 0.00 84 1008.2
20240526035537 80 121 6.0 14.0 0.00 0.00 0.00 84 1008.2
20240526035037 80 140 7.0 11.0 0.00 0.00 0.00 84 1008.2
20240526034540 80 173 6.0 11.0 0.00 0.00 0.00 84 1008.3
20240526034042 80 157 6.0 11.0 0.00 0.00 0.00 84 1008.4
20240526033539 81 155 5.0 12.0 0.00 0.00 0.00 84 1008.4
20240526033041 81 134 6.0 12.0 0.00 0.00 0.00 84 1008.5
20240526032536 81 155 6.0 12.0 0.00 0.00 0.00 83 1008.4
20240526032037 81 158 5.0 11.0 0.00 0.00 0.00 83 1008.5
20240526031600 81 144 5.0 11.0 0.00 0.00 0.00 83 1008.4
20240526031038 81 146 6.0 13.0 0.00 0.00 0.00 83 1008.3
20240526030538 82 150 7.0 15.0 0.00 0.00 0.00 83 1008.3
20240526030043 82 139 7.0 15.0 0.00 0.00 0.00 83 1008.2
20240526025537 82 144 7.0 12.0 0.00 0.00 0.00 83 1008.2
20240526025038 82 140 6.0 13.0 0.00 0.00 0.00 82 1008.3
20240526024540 82 134 6.0 13.0 0.00 0.00 0.00 82 1008.2
20240526024037 82 113 6.0 13.0 0.00 0.00 0.00 82 1008.1
20240526023555 82 142 6.0 13.0 0.00 0.00 0.00 82 1008.0
20240526023040 83 136 6.0 16.0 0.00 0.00 0.00 82 1007.8
20240526022538 83 136 6.0 17.0 0.00 0.00 0.00 81 1007.8
20240526022037 83 146 8.0 17.0 0.00 0.00 0.00 81 1007.8
20240526021537 83 139 6.0 16.0 0.00 0.00 0.00 81 1007.9
20240526021038 83 139 8.0 16.0 0.00 0.00 0.00 80 1007.8
20240526020536 84 137 6.0 12.0 0.00 0.00 0.00 80 1007.9
20240526020039 84 179 5.0 13.0 0.00 0.00 0.00 80 1007.8
20240526015537 84 129 7.0 13.0 0.00 0.00 0.00 80 1007.7
20240526015036 84 140 5.0 11.0 0.00 0.00 0.00 80 1007.7
20240526014542 85 121 7.0 11.0 0.00 0.00 0.00 80 1007.7
20240526014038 85 166 5.0 12.0 0.00 0.00 0.00 79 1007.8
20240526013536 85 146 6.0 12.0 0.00 0.00 0.00 79 1007.7
20240526013042 85 142 6.0 11.0 0.00 0.00 0.00 79 1007.6
20240526012537 86 137 5.0 11.0 0.00 0.00 0.00 78 1007.5
20240526012037 86 123 7.0 14.0 0.00 0.00 0.00 78 1007.4
20240526011542 86 141 6.0 14.0 0.00 0.00 0.00 78 1007.3
20240526011037 86 116 7.0 14.0 0.00 0.00 0.00 77 1007.3
20240526010537 87 137 6.0 12.0 0.00 0.00 0.00 77 1007.3
20240526010054 87 140 7.0 13.0 0.00 0.00 0.00 77 1007.3
20240526005537 87 157 7.0 13.0 0.00 0.00 0.00 77 1007.3
20240526005037 87 126 6.0 12.0 0.00 0.00 0.00 77 1007.2
20240526004543 88 130 5.0 12.0 0.00 0.00 0.00 77 1007.2
20240526004039 88 138 5.0 12.0 0.00 0.00 0.00 77 1007.1
20240526003536 88 142 5.0 12.0 0.00 0.00 0.00 77 1007.1
20240526003040 88 152 6.0 12.0 0.00 0.00 0.00 77 1007.1
20240526002537 88 146 4.0 10.0 0.00 0.00 0.00 77 1007.0
20240526002036 89 130 5.0 10.0 0.00 0.00 0.00 76 1007.0
20240526001542 89 128 5.0 12.0 0.00 0.00 0.00 76 1006.9
20240526001037 89 146 4.0 12.0 0.00 0.00 0.00 76 1006.9
20240526000538 89 136 6.0 12.0 0.00 0.00 0.00 75 1007.0
20240526000042 90 119 4.0 11.0 0.00 0.00 0.00 75 1007.0
20240525235536 90 146 6.0 10.0 0.00 0.00 0.00 75 1006.9
20240525235038 90 165 3.0 9.0 0.00 0.00 0.00 74 1006.8
20240525234556 90 148 5.0 9.0 0.00 0.00 0.00 73 1006.8
20240525234038 91 142 5.0 12.0 0.00 0.00 0.00 72 1006.8
20240525233537 91 143 6.0 12.0 0.00 0.00 0.00 72 1006.7
20240525233038 91 138 5.0 12.0 0.00 0.00 0.00 71 1006.6
20240525232537 91 143 4.0 14.0 0.00 0.00 0.00 70 1006.7
20240525232037 91 165 5.0 14.0 0.00 0.00 0.00 69 1006.8
20240525231539 92 148 6.0 13.0 0.00 0.00 0.00 68 1006.7
20240525231038 92 164 7.0 13.0 0.00 0.00 0.00 68 1006.8
20240525230537 92 155 7.0 13.0 0.00 0.00 0.00 68 1006.7
20240525230041 92 128 2.0 12.0 0.00 0.00 0.00 68 1006.9
20240525225537 92 189 6.0 12.0 0.00 0.00 0.00 67 1007.0
20240525225036 92 159 5.0 11.0 0.00 0.00 0.00 67 1007.0
20240525224538 92 155 5.0 11.0 0.00 0.00 0.00 69 1007.0
20240525224036 92 169 5.0 11.0 0.00 0.00 0.00 67 1007.0
20240525223538 92 175 5.0 11.0 0.00 0.00 0.00 67 1007.0
20240525223039 92 180 2.0 9.0 0.00 0.00 0.00 69 1007.0
20240525222537 92 172 4.0 17.0 0.00 0.00 0.00 68 1007.0
20240525222037 92 198 8.0 17.0 0.00 0.00 0.00 68 1007.0
20240525221542 92 159 8.0 13.0 0.00 0.00 0.00 68 1006.9
20240525221037 92 205 6.0 14.0 0.00 0.00 0.00 69 1006.8
20240525220537 92 150 7.0 14.0 0.00 0.00 0.00 68 1006.8
20240525220040 92 140 7.0 14.0 0.00 0.00 0.00 69 1006.8
20240525215536 92 132 7.0 15.0 0.00 0.00 0.00 69 1006.9
20240525215036 92 171 8.0 16.0 0.00 0.00 0.00 68 1007.0
20240525214542 92 182 6.0 16.0 0.00 0.00 0.00 69 1006.9
20240525214037 92 169 6.0 12.0 0.00 0.00 0.00 69 1007.1
20240525213537 92 144 5.0 13.0 0.00 0.00 0.00 69 1007.1
20240525213038 92 186 5.0 13.0 0.00 0.00 0.00 70 1007.1
20240525212536 92 169 6.0 13.0 0.00 0.00 0.00 70 1007.0
20240525212037 91 121 6.0 13.0 0.00 0.00 0.00 71 1007.0
20240525211544 91 153 8.0 16.0 0.00 0.00 0.00 70 1007.0
20240525211037 91 146 7.0 16.0 0.00 0.00 0.00 70 1007.0
20240525210537 91 148 8.0 16.0 0.00 0.00 0.00 70 1007.1
20240525210039 91 180 7.0 16.0 0.00 0.00 0.00 70 1007.2
20240525205537 91 206 5.0 12.0 0.00 0.00 0.00 70 1007.4
20240525205038 92 168 5.0 12.0 0.00 0.00 0.00 71 1007.5
20240525204539 92 182 5.0 14.0 0.00 0.00 0.00 71 1007.6
20240525204037 91 126 6.0 14.0 0.00 0.00 0.00 71 1007.7
20240525203538 91 196 7.0 14.0 0.00 0.00 0.00 69 1007.9
20240525203104 91 130 8.0 13.0 0.00 0.00 0.00 71 1008.0
20240525202537 91 161 4.0 15.0 0.00 0.00 0.00 71 1008.1
20240525202037 91 146 8.0 15.0 0.00 0.00 0.00 72 1008.1
20240525201541 91 165 7.0 15.0 0.00 0.00 0.00 72 1008.3
20240525201037 90 171 9.0 15.0 0.00 0.00 0.00 71 1008.4
20240525200537 91 133 6.0 14.0 0.00 0.00 0.00 71 1008.5
20240525200038 91 141 7.0 14.0 0.00 0.00 0.00 72 1008.5
20240525195537 91 123 7.0 12.0 0.00 0.00 0.00 71 1008.6
20240525195036 91 163 5.0 13.0 0.00 0.00 0.00 71 1008.6
20240525194539 91 119 5.0 13.0 0.00 0.00 0.00 72 1008.7
20240525194037 91 121 3.0 13.0 0.00 0.00 0.00 73 1008.7
20240525193538 90 153 6.0 13.0 0.00 0.00 0.00 72 1008.8
20240525193038 90 144 7.0 13.0 0.00 0.00 0.00 72 1008.9
20240525192535 90 176 6.0 13.0 0.00 0.00 0.00 73 1008.9
20240525192040 90 178 8.0 15.0 0.00 0.00 0.00 73 1009.0
20240525191541 90 135 6.0 15.0 0.00 0.00 0.00 71 1009.0
20240525191037 90 129 8.0 15.0 0.00 0.00 0.00 72 1009.1
20240525190537 90 140 5.0 14.0 0.00 0.00 0.00 74 1009.1
20240525190052 89 202 7.0 14.0 0.00 0.00 0.00 72 1009.1
20240525185537 89 144 7.0 14.0 0.00 0.00 0.00 72 1009.2
20240525185037 90 133 6.0 12.0 0.00 0.00 0.00 72 1009.3
20240525184542 90 119 6.0 12.0 0.00 0.00 0.00 72 1009.4
20240525184038 89 175 4.0 13.0 0.00 0.00 0.00 74 1009.6
20240525183537 89 164 5.0 13.0 0.00 0.00 0.00 74 1009.6
20240525183054 89 138 5.0 10.0 0.00 0.00 0.00 72 1009.7
20240525182537 89 169 4.0 9.0 0.00 0.00 0.00 74 1009.8
20240525182037 89 146 4.0 10.0 0.00 0.00 0.00 74 1009.9
20240525181546 89 155 5.0 10.0 0.00 0.00 0.00 75 1010.1
20240525181036 88 153 4.0 14.0 0.00 0.00 0.00 75 1010.1
20240525180536 88 178 4.0 14.0 0.00 0.00 0.00 73 1010.2
20240525180049 88 150 5.0 12.0 0.00 0.00 0.00 76 1010.4
20240525175537 88 132 7.0 12.0 0.00 0.00 0.00 73 1010.5
20240525175038 88 168 4.0 11.0 0.00 0.00 0.00 76 1010.6
20240525174545 88 170 4.0 12.0 0.00 0.00 0.00 74 1010.6
20240525174037 88 141 6.0 12.0 0.00 0.00 0.00 74 1010.7
20240525173537 88 153 4.0 10.0 0.00 0.00 0.00 74 1010.7
20240525173039 88 178 2.0 10.0 0.00 0.00 0.00 76 1010.8
20240525172537 87 149 4.0 10.0 0.00 0.00 0.00 75 1010.8
20240525172039 87 199 5.0 11.0 0.00 0.00 0.00 76 1010.9
20240525171539 87 146 6.0 11.0 0.00 0.00 0.00 75 1010.9
20240525171036 87 191 5.0 11.0 0.00 0.00 0.00 75 1011.0
20240525170537 87 213 6.0 11.0 0.00 0.00 0.00 75 1011.0
20240525170051 86 215 6.0 11.0 0.00 0.00 0.00 76 1011.0
20240525165537 87 150 6.0 12.0 0.00 0.00 0.00 75 1011.0
20240525165037 87 166 5.0 12.0 0.00 0.00 0.00 76 1011.0
20240525164556 86 214 3.0 13.0 0.00 0.00 0.00 78 1011.1
20240525164037 86 194 3.0 13.0 0.00 0.00 0.00 79 1011.2
20240525163536 86 153 5.0 12.0 0.00 0.00 0.00 77 1011.3
20240525163039 85 191 3.0 12.0 0.00 0.00 0.00 78 1011.3
20240525162537 85 153 6.0 12.0 0.00 0.00 0.00 78 1011.4
20240525162038 85 166 3.0 11.0 0.00 0.00 0.00 79 1011.4
20240525161540 85 168 4.0 11.0 0.00 0.00 0.00 79 1011.4
20240525161037 85 141 5.0 10.0 0.00 0.00 0.00 78 1011.3
20240525160537 85 153 5.0 10.0 0.00 0.00 0.00 80 1011.4
20240525160045 84 172 3.0 9.0 0.00 0.00 0.00 81 1011.4
20240525155538 84 166 4.0 10.0 0.00 0.00 0.00 80 1011.4
20240525155037 84 161 5.0 12.0 0.00 0.00 0.00 81 1011.4
20240525154539 84 169 5.0 12.0 0.00 0.00 0.00 81 1011.4
20240525154040 84 155 5.0 14.0 0.00 0.00 0.00 82 1011.4
20240525153537 83 163 3.0 14.0 0.00 0.00 0.00 82 1011.3
20240525153043 84 130 2.0 9.0 0.00 0.00 0.00 82 1011.4
20240525152538 83 150 3.0 9.0 0.00 0.00 0.00 84 1011.4
20240525152038 83 192 3.0 10.0 0.00 0.00 0.00 83 1011.5
20240525151544 83 156 3.0 10.0 0.00 0.00 0.00 84 1011.5
20240525151037 82 155 3.0 10.0 0.00 0.00 0.00 84 1011.4
20240525150538 82 167 6.0 10.0 0.00 0.00 0.00 83 1011.5
20240525150051 82 148 4.0 9.0 0.00 0.00 0.00 85 1011.5
20240525145537 82 155 4.0 9.0 0.00 0.00 0.00 85 1011.4
20240525145037 81 174 2.0 9.0 0.00 0.00 0.00 86 1011.5
20240525144540 81 146 4.0 9.0 0.00 0.00 0.00 86 1011.5
20240525144037 81 169 3.0 9.0 0.00 0.00 0.00 87 1011.5
20240525143537 81 157 2.0 9.0 0.00 0.00 0.00 87 1011.5
20240525143045 81 161 5.0 11.0 0.00 0.00 0.00 87 1011.5
20240525142537 81 155 6.0 11.0 0.00 0.00 0.00 87 1011.5
20240525142037 81 136 4.0 10.0 0.00 0.00 0.00 87 1011.5
20240525141550 80 152 5.0 10.0 0.00 0.00 0.00 87 1011.5
20240525141037 80 166 4.0 9.0 0.00 0.00 0.00 88 1011.5
20240525140537 80 184 5.0 9.0 0.00 0.00 0.00 88 1011.6
20240525140047 80 157 5.0 10.0 0.00 0.00 0.00 88 1011.5
20240525135538 80 161 5.0 10.0 0.00 0.00 0.00 88 1011.5
20240525135037 80 178 2.0 9.0 0.00 0.00 0.00 89 1011.5
20240525134541 80 175 4.0 9.0 0.00 0.00 0.00 89 1011.4
20240525134037 80 164 4.0 7.0 0.00 0.00 0.00 89 1011.4
20240525133538 80 147 3.0 6.0 0.00 0.00 0.00 89 1011.3
20240525133041 80 153 2.0 6.0 0.00 0.00 0.00 89 1011.3
20240525132536 79 115 2.0 8.0 0.00 0.00 0.00 90 1011.2
20240525132037 79 158 3.0 8.0 0.00 0.00 0.00 90 1011.3
20240525131548 79 138 3.0 8.0 0.00 0.00 0.00 90 1011.2
20240525131039 79 159 3.0 7.0 0.00 0.00 0.00 90 1011.1
20240525130537 79 132 3.0 7.0 0.00 0.00 0.00 90 1011.1
20240525130113 79 126 3.0 5.0 0.00 0.00 0.00 91 1011.1
20240525125537 78 157 3.0 5.0 0.00 0.00 0.00 90 1011.0
20240525125037 78 138 2.0 4.0 0.00 0.00 0.00 91 1011.0
20240525124540 78 127 2.0 5.0 0.00 0.00 0.00 91 1010.9
20240525124038 78 131 2.0 5.0 0.00 0.00 0.00 91 1010.9
20240525123536 78 142 2.0 5.0 0.00 0.00 0.00 91 1010.8
20240525123045 78 147 2.0 4.0 0.00 0.00 0.00 91 1010.7
20240525122538 78 147 1.0 3.0 0.00 0.00 0.00 91 1010.7
20240525122039 78 0 1.0 4.0 0.00 0.00 0.00 91 1010.6
20240525121543 78 147 1.0 4.0 0.00 0.00 0.00 91 1010.6
20240525121036 78 147 1.0 4.0 0.00 0.00 0.00 91 1010.5
20240525120537 78 147 1.0 4.0 0.00 0.00 0.00 91 1010.6
20240525120054 78 147 2.0 4.0 0.00 0.00 0.00 91 1010.4
20240525115534 78 147 1.0 4.0 0.00 0.00 0.00 91 1010.3
20240525115037 78 147 1.0 4.0 0.00 0.00 0.00 91 1010.1
20240525114540 78 147 1.0 4.0 0.00 0.00 0.00 91 1010.0
20240525114037 78 147 1.0 4.0 0.00 0.00 0.00 91 1009.9
20240525113537 78 147 2.0 6.0 0.00 0.00 0.00 90 1009.9
20240525113046 78 167 2.0 7.0 0.00 0.00 0.00 90 1009.8
20240525112538 78 154 2.0 7.0 0.00 0.00 0.00 90 1009.7
20240525112038 78 169 1.0 7.0 0.00 0.00 0.00 90 1009.7
20240525111545 78 146 2.0 7.0 0.00 0.00 0.00 90 1009.7
20240525111037 78 158 3.0 9.0 0.00 0.00 0.00 90 1009.5
20240525110539 78 173 3.0 9.0 0.00 0.00 0.00 90 1009.4
20240525110047 78 163 2.0 8.0 0.00 0.00 0.00 90 1009.4
20240525105536 78 148 2.0 8.0 0.00 0.00 0.00 90 1009.5
20240525105037 78 171 2.0 7.0 0.00 0.00 0.00 90 1009.3
20240525104543 78 150 2.0 7.0 0.00 0.00 0.00 91 1009.3
20240525104038 77 180 2.0 7.0 0.00 0.00 0.00 91 1009.2
20240525103538 77 174 2.0 7.0 0.00 0.00 0.00 91 1009.2
20240525103046 77 180 3.0 7.0 0.00 0.00 0.00 91 1009.1
20240525102537 77 165 2.0 6.0 0.00 0.00 0.00 91 1009.0
20240525102037 77 181 2.0 6.0 0.00 0.00 0.00 91 1008.9
20240525101551 77 173 2.0 6.0 0.00 0.00 0.00 90 1008.9
20240525101038 77 195 2.0 6.0 0.00 0.00 0.00 90 1008.8
20240525100537 77 162 2.0 6.0 0.00 0.00 0.00 90 1008.8
20240525100043 77 108 2.0 6.0 0.00 0.00 0.00 90 1008.7
20240525095537 77 107 2.0 6.0 0.00 0.00 0.00 90 1008.7
20240525095036 77 107 1.0 3.0 0.00 0.00 0.00 90 1008.7
20240525094545 77 107 0.0 3.0 0.00 0.00 0.00 90 1008.8
20240525094038 77 0 0.0 3.0 0.00 0.00 0.00 90 1008.8
20240525093537 77 107 1.0 3.0 0.00 0.00 0.00 90 1008.8
20240525093039 77 0 0.0 3.0 0.00 0.00 0.00 90 1008.7
20240525092537 77 107 0.0 1.0 0.00 0.00 0.00 90 1008.7
20240525092038 77 0 0.0 1.0 0.00 0.00 0.00 90 1008.8
20240525091549 77 0 0.0 0.0 0.00 0.00 0.00 90 1008.8
20240525091037 77 0 0.0 1.0 0.00 0.00 0.00 90 1008.9
20240525090538 77 0 0.0 1.0 0.00 0.00 0.00 90 1008.8
20240525090053 77 0 0.0 1.0 0.00 0.00 0.00 90 1008.8
20240525085537 77 0 0.0 2.0 0.00 0.00 0.00 90 1008.9
20240525085036 77 0 0.0 2.0 0.00 0.00 0.00 90 1008.9
20240525084546 77 107 0.0 2.0 0.00 0.00 0.00 90 1008.9
20240525084040 77 0 0.0 2.0 0.00 0.00 0.00 90 1009.0
20240525083538 77 0 0.0 2.0 0.00 0.00 0.00 90 1009.1
20240525083135 77 107 0.0 2.0 0.00 0.00 0.00 90 1009.0
20240525082538 77 107 0.0 2.0 0.00 0.00 0.00 90 1008.9
20240525082039 77 0 0.0 0.0 0.00 0.00 0.00 90 1008.7
20240525081549 77 0 0.0 0.0 0.00 0.00 0.00 90 1008.7
20240525081038 77 0 0.0 0.0 0.00 0.00 0.00 89 1008.8
20240525080538 77 0 0.0 0.0 0.00 0.00 0.00 89 1008.9
20240525080054 77 0 0.0 0.0 0.00 0.00 0.00 89 1009.0
20240525075538 77 0 0.0 0.0 0.00 0.00 0.00 89 1009.0
20240525075037 77 0 0.0 0.0 0.00 0.00 0.00 89 1009.0
20240525074607 77 0 0.0 1.0 0.00 0.00 0.00 90 1008.9
20240525074037 77 0 0.0 1.0 0.00 0.00 0.00 89 1008.9
20240525073537 77 0 0.0 2.0 0.00 0.00 0.00 90 1009.2
20240525073100 77 0 0.0 3.0 0.00 0.00 0.00 89 1009.0
20240525072538 77 0 0.0 3.0 0.00 0.00 0.00 89 1009.0
20240525072038 77 107 1.0 3.0 0.00 0.00 0.00 89 1009.0
20240525071615 77 59 1.0 3.0 0.00 0.00 0.00 89 1009.0
20240525071035 78 0 1.0 2.0 0.00 0.00 0.00 89 1009.3
20240525070538 77 0 0.0 0.0 0.00 0.00 0.00 88 1009.4
20240525070112 77 0 0.0 1.0 0.00 0.00 0.00 88 1009.5
20240525065538 78 0 0.0 1.0 0.00 0.00 0.00 88 1009.4
20240525065038 78 0 0.0 2.0 0.00 0.00 0.00 88 1009.5
20240525064554 78 0 0.0 2.0 0.00 0.00 0.00 88 1009.5
20240525064038 78 0 0.0 2.0 0.00 0.00 0.00 88 1009.7
20240525063539 78 0 0.0 0.0 0.00 0.00 0.00 88 1009.7
20240525063054 78 0 0.0 0.0 0.00 0.00 0.00 87 1009.8
20240525062538 78 0 0.0 0.0 0.00 0.00 0.00 87 1010.0
20240525062038 78 0 0.0 1.0 0.00 0.00 0.00 87 1010.4
20240525061609 78 0 0.0 1.0 0.00 0.00 0.00 87 1010.3
20240525061038 78 0 0.0 4.0 0.00 0.00 0.00 87 1010.4
20240525060538 78 0 1.0 5.0 0.00 0.00 0.00 87 1010.6
20240525060107 78 309 2.0 5.0 0.00 0.00 0.00 87 1010.8
20240525055537 79 319 3.0 4.0 0.00 0.00 0.00 86 1010.8
20240525055036 79 310 3.0 4.0 0.00 0.00 0.00 86 1010.6
20240525054550 79 310 1.0 3.0 0.00 0.00 0.00 86 1010.6
20240525054038 79 151 1.0 3.0 0.00 0.00 0.00 86 1010.4
20240525053536 79 151 0.0 3.0 0.00 0.00 0.00 86 1010.1
20240525053112 79 151 1.0 3.0 0.00 0.00 0.00 86 1010.1
20240525052541 79 151 1.0 3.0 0.00 0.00 0.00 85 1010.2